ONEWEB-0160 (48060 NORAD) Tracking and Keplerian Element Data

This shows tracking and keplerian element data for the satellite.

Feedback or suggestion? Click here.




ElementValue
Catalog48060
NameONEWEB-0160
Epoch Orbit178
Epoch Day170.58334491
Epoch Year2021
RAAN323.0654
Inclination87.7252
Eccentricity0.0005964
Argument of Perigee3.4103
Mean Anonmoly32.7333
Mean Motion13.8414228
Decay Rate1.6E-07
L11 48060U 21025U 21170.58334491 .00000016 00000-0 00000-0 0 9993
L22 48060 87.7252 323.0654 0005964 3.4103 32.7333 13.84142280 1789

Live tracking and technical data element details for ONEWEB-0160 (NORAD 48060). ONEWEB-0160 can be tracked NOW for your location showing map with azimuth and elevation plus other details from your city location.

Track the satellite on the map from your city or location and see movement details for azimuth, elevation, latitude, longitude, range, height, and movement on the map or in text.







IsCatalogInMostPopularTable: catalog: 48060, numindb: 46
Update: records affected: 1



GetName: 48060 ONEWEB-0160

Hit Count: updated at: Mon, 21 Jun 2021 04:52:12 GMT